Location: Madrid
(40.4167°N, 3.7036°W)
Time: 21:25:30
(UTC+00:00)

ISS - Pass Details

Date: 09 July 2025
Orbit: 413 x 417 km, 51.6° (Epoch: 13 July)

Event Time Altitude Azimuth Distance (km) Brightness Sun altitude
Rises 21:31:23 0° 253° (WSW) 2,342 0.4 -16.1°
Reaches altitude 10° 21:33:34 10° 263° (W) 1,483 -0.5 -16.3°
Maximum altitude 21:36:40 35° 331° (NNW) 690 -2.0 -16.7°
Drops below altitude 10° 21:39:47 10° 40° (NE) 1,491 -0.8 -17.1°
Sets 21:42:00 0° 49° (NE) 2,357 0.1 -17.3°
